#timestamp,LO_Frequency,Hit,StdDev 
1530018015.6,286046998.6,P
1530018035.5,286046998.1,N
1530018055.3,286046998.6,N
1530018075.1,286046998.9,N
1530018095.9,286046996.9,Y
1530018115.7,286047001.2,P
1530018135.6,286046998.1,N
1530018155.4,286046998.2,N
1530018175.2,286047001.1,N
1530018195.1,286046998.6,N
1530018196.0,286046998.6,N
1530018215.8,286046998.4,N
1530018235.6,286047000.8,N
1530018255.5,286046998.1,N
1530018275.3,286046996.6,N
1530018295.2,286046996.6,N
1530018315.9,286046997.2,N
1530018335.7,286046999.6,N
1530018355.6,286046998.4,N
1530018375.4,286046999.4,N
1530018395.3,286046996.7,N
1530018415.1,286046997.6,N
1530018416.0,286046997.6,N
1530018435.8,286046997.6,N
1530018455.7,286046994.9,Y
1530018475.5,286046996.6,P
1530018495.4,286046999.1,N
1530018515.2,286046999.6,N
1530018535.0,286046996.9,N
1530018535.9,286046996.9,N
1530018555.8,286046997.3,N
1530018575.6,286046997.6,N
1530018595.4,286046996.7,Y
1530018615.3,286047001.2,P
1530018635.1,286047000.8,N
1530018655.9,286047001.2,N
1530018675.7,286046998.2,N
1530018695.5,286046998.1,N
1530018715.4,286047001.2,N
1530018735.2,286046999.1,N
1530018755.0,286046998.8,N
1530018755.9,286046998.8,N
1530018775.8,286046999.1,N
1530018795.6,286046996.6,N
1530018815.5,286046996.6,N
1530018835.3,286046999.2,N
1530018855.1,286046999.5,N
1530018875.9,286046999.4,N
1530018895.7,286046998.4,N
1530018915.6,286046996.7,N
1530018935.4,286046998.0,N
1530018955.2,286046997.1,N
1530018975.1,286046997.9,N
1530018976.0,286046997.9,N
1530018995.8,286046997.5,N
1530019015.6,286046997.6,N
1530019035.5,286046997.1,N
1530019055.3,286046996.8,N
1530019075.2,286046996.6,N
1530019095.9,286046998.7,N
1530019115.7,286046997.7,N
1530019135.6,286046997.5,N
1530019155.4,286046997.5,N
1530019175.2,286046997.8,N
1530019195.1,286046997.1,N
1530019196.0,286046997.1,N
1530019215.8,286046997.8,N
1530019235.7,286046997.4,N
1530019255.5,286046997.4,N
1530019275.3,286046995.0,Y
1530019295.2,286046999.2,P
1530019315.0,286046999.1,N
1530019315.9,286046999.1,N
1530019335.7,286046996.9,Y
1530019355.6,286046999.5,P
1530019375.4,286046999.5,N
1530019395.3,286046996.8,P
1530019415.1,286046997.4,N
1530019416.0,286046997.4,N
1530019435.8,286046997.5,N
1530019455.7,286046997.1,N
1530019475.5,286046996.9,Y
1530019495.4,286046999.3,P
1530019515.2,286046998.8,N
1530019535.3,286047001.0,N
1530019555.1,286047002.3,N
1530019556.0,286047002.3,N
1530019575.8,286047002.2,N
1530019595.7,286047001.8,N
1530019615.5,286047001.8,N
1530019635.3,286047000.4,N
1530019655.2,286047000.2,N
1530019675.0,286047002.3,N
1530019675.9,286047002.3,N
1530019695.8,286047001.9,N
1530019715.6,286047002.6,N
1530019735.4,286047002.4,N
1530019755.3,286047001.8,N
1530019775.1,286047002.5,N
1530019795.9,286047002.0,N
1530019815.7,286047002.6,N
1530019835.5,286047000.1,N
1530019855.4,286047002.3,N
1530019875.2,286047002.1,N
1530019895.0,286047002.5,N
1530019895.9,286047002.5,N
1530019915.8,286047000.5,N
1530019935.6,286047000.4,N
1530019955.5,286047000.4,N
1530019975.3,286047000.0,N
1530019995.1,286047000.5,N
1530020015.9,286047001.1,N
1530020035.7,286047000.8,N
1530020055.5,286047001.1,N
1530020075.4,286047000.7,N
1530020095.2,286047000.2,N
1530020115.1,286047000.1,N
1530020116.0,286047000.1,N
1530020135.8,286047000.9,N
1530020155.6,286047001.0,N
1530020175.5,286047000.7,N
1530020195.3,286047001.0,N
1530020215.1,286047000.3,N
1530020235.9,286046999.7,N
1530020255.7,286047000.1,N
1530020275.6,286047000.0,N
1530020295.4,286046999.9,N
1530020315.2,286047001.0,N
1530020335.1,286046998.7,N
1530020336.0,286046998.7,N
1530020355.8,286046998.3,N
1530020375.6,286047000.7,N
1530020395.5,286047000.8,N
1530020415.3,286046998.6,N
1530020435.2,286046998.7,N
1530020455.9,286047000.8,N
1530020475.7,286047000.3,N
1530020495.6,286047000.9,N
1530020515.4,286047000.5,N
1530020535.2,286047000.3,N
1530020555.1,286047000.2,N
1530020556.0,286047000.2,N
1530020575.8,286047000.0,N
1530020595.7,286046998.1,N
1530020615.5,286046998.3,N
1530020635.3,286046999.1,N
1530020655.2,286046998.5,N
1530020675.0,286046999.3,N
1530020675.9,286046999.3,N
1530020695.7,286046998.3,N
1530020715.6,286047000.9,N
1530020735.4,286047000.3,N
1530020755.3,286047002.7,N
1530020775.1,286047002.3,N
1530020776.0,286047002.3,N
1530020795.8,286047002.6,N
1530020815.7,286047001.5,N
1530020835.5,286046999.7,N
1530020855.3,286047000.2,N
1530020875.2,286047000.7,N
1530020895.0,286047000.9,N
1530020895.9,286047000.9,N
1530020915.8,286046998.8,N
1530020935.6,286046996.8,N
1530020955.4,286046996.8,N
1530020975.3,286046997.0,N
1530020995.1,286046999.5,N
1530021015.8,286046999.4,N
1530021035.7,286046999.2,N
1530021055.5,286046998.3,N
1530021075.4,286046999.2,N
1530021095.2,286046998.7,N
1530021115.4,286046996.6,N
1530021135.2,286046999.1,N
1530021155.1,286046998.8,N
1530021156.0,286046998.8,N
1530021175.8,286046999.1,N
1530021195.7,286046999.2,N
1530021215.5,286046998.7,N
1530021235.3,286046999.6,N
1530021255.2,286047001.1,N
1530021275.9,286047000.0,N
1530021295.7,286047000.1,N
1530021315.6,286047001.1,N
1530021335.4,286046998.5,N
1530021355.2,286046999.5,N
1530021375.1,286046998.2,N
1530021376.0,286046998.2,N
1530021395.8,286047001.0,N
1530021415.7,286047000.9,N
1530021435.5,286047001.1,N
1530021455.3,286047001.1,N
1530021475.2,286046998.8,N
1530021495.0,286046998.3,N
1530021495.9,286046998.3,N
1530021515.8,286046999.6,N
1530021535.6,286046997.4,N
1530021555.4,286046996.8,N
1530021575.3,286046996.5,N
1530021595.1,286046998.7,N
